Regional Weather Roundup
Issued by NWS Portland, ME

Home | Current Version | Previous Version | Text Only | Print | Product List | Glossary On
Versions: 1 2 3 4 5 6 7 8 9 10 11 12 13 14 15 16 17 18 19 20 21 22 23 24 25 26 27 28 29 30 31 32 33 34 35 36 37 38 39 40 41 42 43 44 45 46 47 48 49 50
000
ASUS41 KGYX 020010
RWRGYX
WEATHER ROUNDUP FOR MAINE AND NEW HAMPSHIRE
NATIONAL WEATHER SERVICE GRAY ME
800 PM EDT WED APR 01 2015

MEZ002-005-006-010-012-015-018-020-021-024-026-027-029-020100-
MAINE

CITY           SKY/WX    TMP DP  RH WIND       PRES   REMARKS
PORTLAND       CLEAR     38   2  22 NW7       30.09R
6HR MIN TEMP:  37; 6HR MAX TEMP:  45;

SANFORD        CLEAR     36   5  27 W13G20    30.09R
BAR HARBOR     CLEAR     32   3  29 NW5       30.03R
WISCASSET      CLEAR     35   0  22 VRB5      30.08R
6HR MIN TEMP:  35; 6HR MAX TEMP:  41;

ROCKLAND       CLEAR     34   3  27 NW5       30.04R
FRYEBURG       CLEAR     33   2  26 W10G18    30.07R
6HR MIN TEMP:  33; 6HR MAX TEMP:  40;

LEWISTONAUBURN CLEAR     34   1  25 NW8       30.07R
AUGUSTA        CLEAR     32   1  26 NW9       30.06R
6HR MIN TEMP:  32; 6HR MAX TEMP:  38;

WATERVILLE     CLEAR     32   1  27 W13       30.03R
BANGOR         CLEAR     29   5  36 NW13      30.03R WCI  19
6HR MIN TEMP:  29; 6HR MAX TEMP:  35;

GREENVILLE       N/A     22   2  42 VRB6      29.95R
6HR MIN TEMP:  21; 6HR MAX TEMP:  28;

MILLINOCKET    CLEAR     27   3  35 W8G18     30.01R
6HR MIN TEMP:  27; 6HR MAX TEMP:  33; 6HR PCP: TRACE;

HOULTON        CLEAR     26  -1  31 N5        29.94R
6HR MIN TEMP:  26; 6HR MAX TEMP:  31;

PRESQUE ISLE   CLEAR     25  -2  30 NW6       29.95R
6HR MIN TEMP:  25; 6HR MAX TEMP:  28;

FRENCHVILLE    CLEAR     20   0  41 NW8       29.91R
6HR MIN TEMP:  20; 6HR MAX TEMP:  24;

CARIBOU        CLEAR     22  -1  36 NW8       29.93R
6HR MIN TEMP:  22; 6HR MAX TEMP:  26;

$$

NHZ002-005-008-009-011-012-014-020100-
NEW HAMPSHIRE

CITY           SKY/WX    TMP DP  RH WIND       PRES   REMARKS
PORTSMOUTH     CLEAR     37   1  22 NW10      30.10R
ROCHESTER      CLEAR     36   5  27 VRB5      30.09R
6HR MIN TEMP:  36; 6HR MAX TEMP:  41;

NASHUA         CLEAR     40   5  23 W6        30.12R
MANCHESTER     CLEAR     39   4  23 NW6       30.10R
6HR MIN TEMP:  39; 6HR MAX TEMP:  45;

CONCORD        CLEAR     36   2  23 N3        30.10R
6HR MIN TEMP:  35; 6HR MAX TEMP:  43;

LACONIA        CLEAR     34  -2  21 W6        30.09R
PLYMOUTH       FAIR      33  10  39 NW6       30.09R
BERLIN         CLEAR     28   2  32 NW7       30.06R
6HR MIN TEMP:  27; 6HR MAX TEMP:  34;

WHITEFIELD     CLEAR     28   4  35 CALM      30.09R
6HR MIN TEMP:  28; 6HR MAX TEMP:  34;

JAFFREY        CLEAR     31  12  45 CALM      30.08R
6HR MIN TEMP:  31; 6HR MAX TEMP:  40;

KEENE          CLEAR     36   5  27 CALM      30.10S
LEBANON        CLEAR     32  13  45 NE3       30.10R
6HR MIN TEMP:  32; 6HR MAX TEMP:  42;

MT WASHINGTON  PTCLDY     3  -4  72 NW51        N/A  WCI -27
6HR MIN TEMP:   2; 6HR MAX TEMP:   6;

$$

VTZ005-007-008-020100-
VERMONT

CITY           SKY/WX    TMP DP  RH WIND       PRES   REMARKS
ST JOHNSBURY     N/A     30   7  37 MISG      30.10R
MONTPELIER     CLEAR     27   5  39 NW3       30.13R
BURLINGTON     CLEAR     32   5  32 NE6       30.14R
$$

MAZ007-012-024-CTZ003-RIZ002-NYZ038-NYZ072-020100-
SOUTHERN NEW ENGLAND AND NY

CITY           SKY/WX    TMP DP  RH WIND       PRES   REMARKS
BOSTON         PTCLDY    42   1  18 NW12G18   30.12R
WORCESTER      CLEAR     34   6  31 NW6       30.08R
NANTUCKET      CLEAR     34  22  61 S8        30.12R
PROVIDENCE     PTCLDY    42   4  20 NW7       30.13R
HARTFORD       CLEAR     42   5  21 NW10      30.12R
ALBANY         PTCLDY    37   7  28 W15       30.15R
NEW YORK CITY  CLEAR     48  18  30 NW13      30.15R
$$

ANZ081-ANZ082-ANZ150-NHZ014-MEZ023>029-020100-
COASTAL MARINE OBSERVATIONS

STATION/POSITION TIME  TEMP    WIND        PRES    WAVE
                       AIR SEA DIR/SP/G            HT/PER
                 (UTC) (F)     (DEG/KT/KT) (MB)    (FT/S)
MOUNT DESERT ROC 0000   36                 1016.2R
MATINICUS ROCK   2300   37     310/ 18/ 19 1015.8R
WELLS            2300   40 35  300/  8/ 12 1017.1R
ISLE OF SHOALS   2300   41     300/ 22/ 23 1016.9R
JEFFREYS LEDGE   2321      39                N/A     3/ 4
CASHES LEDGE BUO 2350   38 38              1017.3R   4/ 5
$$

.............KEY..............
   WCI - WIND CHILL
   TC  - TEMPERATURE IN CELSIUS
   VSB - VISIBILITY IN MILES
   HX  - HEAT INDEX
   FAIR- INDICATES FEW OR NO CLOUDS BELOW 12,000 FT, WITH NO
         SIGNIFICANT WEATHER AND/OR OBSTRUCTIONS TO VISIBILITY.





USA.gov is the U.S. government's official web portal to all federal, state and local government web resources and services.